This is the latest recevied weather packets stored in our database for station/object PY2UEP-1. If no packets are shown the sender has not sent any weather packets the latest 1 day(s).
| Time | Temp. | Humidity | Pressure | Rain* | Wind** | Luminosity | Snow |
|---|---|---|---|---|---|---|---|
| 1778028048 | 23.33° C | 68% | 1022.3 hPa | 0 mm | 1.34 m/s, 140° | - | - |
| 1778027748 | 23.33° C | 68% | 1022.3 hPa | 0 mm | 0.89 m/s, 144° | - | - |
| 1778027448 | 23.89° C | 67% | 1022.3 hPa | 0 mm | 1.34 m/s, 142° | - | - |
| 1778027148 | 23.33° C | 68% | 1022.3 hPa | 0 mm | 1.34 m/s, 141° | - | - |
| 1778026848 | 23.33° C | 68% | 1022.3 hPa | 0 mm | 1.34 m/s, 141° | - | - |
| 1778026548 | 23.89° C | 67% | 1022.3 hPa | 0 mm | 0.89 m/s, 140° | - | - |
| 1778026248 | 23.33° C | 67% | 1022.3 hPa | 0 mm | 1.34 m/s, 134° | - | - |
| 1778025948 | 23.89° C | 66% | 1022.3 hPa | 0 mm | 0.89 m/s, 139° | - | - |
| 1778025648 | 23.89° C | 67% | 1022.3 hPa | 0 mm | 0.89 m/s, 138° | - | - |
| 1778025348 | 23.89° C | 67% | 1022.3 hPa | 0 mm | 0.89 m/s, 134° | - | - |
| 1778025048 | 23.89° C | 67% | 1022.4 hPa | 0 mm | 0.89 m/s, 139° | - | - |
| 1778024748 | 23.89° C | 66% | 1022.3 hPa | 0 mm | 0.89 m/s, 138° | - | - |
| 1778024448 | 23.89° C | 67% | 1022.3 hPa | 0 mm | 0.89 m/s, 140° | - | - |
| 1778024148 | 24.44° C | 66% | 1022.3 hPa | 0 mm | 0.89 m/s, 140° | - | - |
| 1778023848 | 24.44° C | 66% | 1022.3 hPa | 0 mm | 1.34 m/s, 143° | - | - |
| 1778023548 | 23.89° C | 68% | 1022.3 hPa | 0 mm | 1.34 m/s, 139° | - | - |
| 1778023248 | 23.89° C | 67% | 1022.3 hPa | 0 mm | 0.89 m/s, 146° | - | - |
| 1778022948 | 24.44° C | 66% | 1022.3 hPa | 0 mm | 0.89 m/s, 144° | - | - |
| 1778022648 | 24.44° C | 66% | 1022.2 hPa | 0 mm | 0.89 m/s, 125° | - | - |
| 1778022348 | 24.44° C | 68% | 1022.2 hPa | 0 mm | 0.89 m/s, 118° | - | - |
| 1778022048 | 24.44° C | 68% | 1022 hPa | 0 mm | 0.45 m/s, 102° | - | - |
| 1778021748 | 24.44° C | 68% | 1022 hPa | 0 mm | 0.45 m/s, 121° | - | - |
| 1778021448 | 25° C | 67% | 1022 hPa | 0 mm | 0.45 m/s, 98° | - | - |
| 1778021148 | 25° C | 65% | 1021.9 hPa | 0 mm | 0.89 m/s, 101° | - | - |
| 1778020848 | 25° C | 65% | 1021.9 hPa | 0 mm | 0.89 m/s, 96° | - | - |
* Rain since midnight (hover to see other rain measurements)
** Current wind speed in m/s (hover to see current wind gust speed)